Miscellaneous Local Product
Issued by NWS Hastings, NE

Home | Current Version | Previous Version | Graphics & Text | Print | Product List | Glossary On
Versions: 1 2 3 4 5 6 7 8 9 10 11 12 13 14 15 16 17 18 19 20 21 22 23 24 25 26 27 28 29 30 31 32 33 34 35 36 37 38 39 40 41 42 43 44 45 46 47 48 49 50
000
AXUS43 KGID 030702
MISGRI

GID CWA HOURLY WEATHER ROUNDUP
NATIONAL WEATHER SERVICE HASTINGS NE
200 AM CDT THU SEP 03 2015

NOTE: "FAIR" INDICATES FEW OR NO CLOUDS BELOW 12,000 FEET WITH NO
SIGNIFICANT WEATHER AND/OR OBSTRUCTIONS TO VISIBILITY.

...SOUTH CENTRAL NEBRASKA...

CITY           SKY/WX    TMP DP  RH WIND       PRES   REMARKS
GRAND ISLAND   CLEAR     73  64  73 S9        29.84F
HASTINGS       CLEAR     76  63  64 S9        29.85F
KEARNEY        CLEAR     70  61  73 S7        29.84F
ORD            CLEAR     66  64  93 CALM      29.83S
YORK           CLEAR     73  66  78 S9        29.85F
AURORA         CLEAR     73  67  83 S9        29.85S
LEXINGTON      CLEAR     67  63  86 E3        29.84S
HOLDREGE       CLEAR     71  60  68 S7        29.85S
HEBRON         CLEAR     76  63  64 S10       29.86S

...NEBRASKA PANHANDLE...

CITY           SKY/WX    TMP DP  RH WIND       PRES   REMARKS
CHADRON        CLEAR     64  46  52 CALM      29.83S
ALLIANCE       CLEAR     61  51  70 SE6       29.91S
SCOTTSBLUFF    PTCLDY    67  51  56 E6        29.91S
SIDNEY         PTCLDY    60  47  61 SW7       29.95F

...WESTERN AND NORTH CENTRAL NEBRASKA...

CITY           SKY/WX    TMP DP  RH WIND       PRES   REMARKS
VALENTINE      CLEAR     75  61  61 S15       29.82F
AINSWORTH      CLEAR     70  62  74 S9        29.84S
ONEILL         CLEAR     71  68  92 SE6       29.83F
BROKEN BOW     CLEAR     63  60  90 CALM      29.85F
IMPERIAL       CLEAR     68  56  65 CALM      29.86F
NORTH PLATTE   PTCLDY    66  63  90 E6        29.85F
MCCOOK         PTCLDY    75  57  53 S6        29.83F

...EASTERN NEBRASKA...

CITY           SKY/WX    TMP DP  RH WIND       PRES   REMARKS
NORFOLK        CLEAR     72  67  84 SE6       29.83F
SO SIOUX CITY  CLEAR     71  67  87 E7        29.84S
TEKAMAH        CLEAR     72  70  93 SE6       29.85S
COLUMBUS       CLEAR     73  64  73 S3        29.84F
ALBION         CLEAR     71  66  84 E6        29.84F
OMAHA EPPLEY   CLEAR     77  70  79 S12       29.86F
OFFUTT AFB     CLEAR     74  70  86 SE7       29.86F
MILLARD        CLEAR     74  69  85 SE5       29.86S
LINCOLN        CLEAR     76  67  73 S9        29.86F
NEBRASKA CITY  CLEAR     73  66  78 S9        29.89S
BEATRICE       CLEAR     75  67  76 S8        29.88S
FALLS CITY     CLEAR     76  69  79 S8        29.89S

...NORTHERN KANSAS...

CITY           SKY/WX    TMP DP  RH WIND       PRES   REMARKS
GOODLAND       PTCLDY    75  55  49 S14       29.90F
HILL CITY      PTCLDY    80  58  46 VRB5      29.85S
NORTON         SUNNY     79  52  38 S8        29.84S
PHILLIPSBURG   CLEAR     77  59  53 CALM      29.85S
SMITH CENTER   CLEAR     73  63  68 SE7       29.86S
HAYS           PTCLDY    79  57  47 S10       29.88S
RUSSELL        PTCLDY    78  62  57 S14       29.87R
CONCORDIA      PTCLDY    77  64  64 S18       29.86F
SALINA         CLEAR     80  63  55 S14       29.88S
TOPEKA         CLEAR     77  68  73 S8        29.92F



USA.gov is the U.S. government's official web portal to all federal, state and local government web resources and services.